Regional Weather Roundup
Issued by NWS

Home | Current Version | Previous Version | Text Only | Print | Product List | Glossary Off
Versions: 1 2 3 4 5 6 7 8 9 10 11 12 13 14 15 16 17 18 19 20 21 22 23 24 25 26 27 28 29 30 31 32 33 34 35 36 37 38 39 40 41 42 43 44 45 46 47 48 49 50

000
ASUS45 KSLC 290110
RWRUT

UTAH REGIONAL WEATHER ROUNDUP
NATIONAL WEATHER SERVICE SALT LAKE CITY UT
700 PM MDT THU JUL 28 2016

UTZ001>011-023>025-290200-

NORTHERN UTAH

CITY           SKY/WX    TMP DP  RH WIND       PRES   REMARKS
BRIGHAM CITY     N/A     96  29   9 S6        30.01F HX  90
HILL AFB         N/A     94  38  14 W6        30.07
LOGAN            N/A     93  40  15 N9        30.04S
OGDEN            N/A     95  37  13 W7        30.02F HX  90
PROVO AIRPORT  SUNNY     97  39  13 NW14      30.03F HX  92
SALT LAKE CITY   N/A    100  29   8 NW8       30.00F HX  93
VERNAL         SUNNY     98  27   8 NW9       30.03S HX  92
WENDOVER         N/A     97  36  11 SE7       30.00F HX  92
HEBER CITY       N/A     91  32  12 N9        30.12S
WEST JORDAN    SUNNY     95  36  12 NW7       30.05F HX  90

$$

UTZ012>022-026-027-290200-

SOUTHERN/CENTRAL UTAH

CITY           SKY/WX    TMP DP  RH WIND       PRES   REMARKS
BLANDING         N/A     93  32  11 W12       30.17F
BRYCE CANYON     N/A     86  28  12 CALM      30.32F
CEDAR CITY       N/A     93  35  13 W8        30.11F
DELTA            N/A     99  27   8 NW13      30.02F HX  92
MILFORD          N/A    102  22   6 N15       30.03S HX  94
MOAB/CYNLANDS    N/A    101  25   7 W10       29.95F HX  94
PRICE            N/A     96  23   7 NW18G26   30.12S HX  90
ST GEORGE        N/A    104  43  12 SW17G30   29.87R HX  99

$$

REGIONAL REPORTS     COLORADO/ARIZONA

CITY           SKY/WX    TMP DP  RH WIND       PRES   REMARKS
CRAIG, CO      SUNNY     87  26  11 W12       30.13F
GRAND JUNCTION SUNNY     99  25   7 N14       29.99F HX  92
RIFLE          SUNNY     96  25   8 NW13      30.04F HX  90
MONTROSE       SUNNY     89  35  14 SW9       30.10S
CORTEZ         SUNNY     91  35  13 E9        30.11F
PAGE, AZ         N/A    103  31   8 NW8G16    29.95F HX  96
GRAND CANYON     N/A     84  41  21 VRB6      30.25F
KINGMAN        PTSUNNY   87  56  34 E25G32    30.04R THUNDER
FLAGSTAFF        N/A     80  46  30 CALM      30.26S

$$

REGIONAL REPORTS    NEVADA/IDAHO/WYOMING

CITY           SKY/WX    TMP DP  RH WIND       PRES   REMARKS
LAS VEGAS, NV    N/A    113  32   6 VRB5      29.73F HX 105
ELY              N/A     90  27  10 N10G28    30.17F
ELKO             N/A     99  25   7 W14       30.06F HX  92
POCATELLO, ID  SUNNY     93  32  11 SW14      30.04F
BURLEY           N/A     88  46  23 W8        30.02F
EVANSTON, WY   SUNNY     84  27  12 NW16G24   30.27F
ROCK SPRINGS   SUNNY     86  17   8 NW20G26   30.19S
KEMMERER         N/A     81  19  10 NW21G29   30.28S

$$



USA.gov is the U.S. government's official web portal to all federal, state and local government web resources and services.